Back to catalog

SL-12 R/B(2)

AliveLEO
NORAD 15772·ROCKET BODY·🇷🇺 Russia

Launched May 30, 1985 from Baikonur Cosmodrome

Loading…

Next Passes (next 24 hours)

TLE

FreshSource: Space-Track

Epoch: Sep 14, 2026, 10:08 UTC

1 15772U 85042D   26257.42270150 -.00000028  00000-0  86859-5 0  9996
2 15772  71.1081  48.9778 0035619 195.2978 193.8570 14.22020836141221

Track SL-12 R/B(2) in real time with AllMySat

Download on the App Store